Location: Cheching
(60.0667°N, 164.2167°W)
Time: 20:52:41
(UTC+00:00)

NOAA 15 - Pass Details

Date: 24 January 2021
Orbit: 798 x 812 km, 98.7° (Epoch: 07 March)

Event Time Altitude Azimuth Distance (km) Brightness Sun altitude
Rises 18:10:15 0° 19° (NNE) 3,344 7.8 -9.1°
Reaches altitude 10° 18:12:45 10° 27° (NNE) 2,410 7.1 -8.8°
Maximum altitude 18:17:44 39° 96° (E) 1,207 6.2 -8.2°
Drops below altitude 10° 18:22:42 10° 165° (SSE) 2,400 7.7 -7.7°
Sets 18:25:11 0° 173° (S) 3,328 8.3 -7.4°
